Weather reports worldwide

Advertisment
Riga, Latvia (26422): temperature & dewpoint: 21.04.2017 02:00:00 - 27.04.2017 02:00:00 (EEST)Riga, Latvia (26422): wind speed: 21.04.2017 02:00:00 - 27.04.2017 02:00:00 (EEST)Riga, Latvia (26422): wind direction: 21.04.2017 02:00:00 - 27.04.2017 02:00:00 (EEST)Riga, Latvia (26422): reduced air pressure: 21.04.2017 02:00:00 - 27.04.2017 02:00:00 (EEST)Riga, Latvia (26422): visibility: 21.04.2017 02:00:00 - 27.04.2017 02:00:00 (EEST)
Date & Time tt [°C] td [°C] ff [km/h] ff [kn] dd ppp [hPa] vv [km]
27.04.2017 02:00:00 - - - - - - -
27.04.2017 01:00:00 - - - - - - -
27.04.2017 00:00:00 3,3 -1,7 11 6 WSW 1011,7 10
26.04.2017 23:00:00 - - - - - - -
26.04.2017 22:00:00 - - - - - - -
26.04.2017 21:00:00 5,7 -1,3 7 4 W 1010,6 10
26.04.2017 20:00:00 - - - - - - -
26.04.2017 19:00:00 - - - - - - -
26.04.2017 18:00:00 7,6 0,5 11 6 W 1009,3 20
26.04.2017 17:00:00 - - - - - - -
26.04.2017 16:00:00 - - - - - - -
26.04.2017 15:00:00 8,1 -2,1 25 14 WSW 1006,7 20
26.04.2017 14:00:00 - - - - - - -
26.04.2017 13:00:00 - - - - - - -
26.04.2017 12:00:00 6,2 1,3 25 14 SW 1003,8 10
26.04.2017 11:00:00 - - - - - - -
26.04.2017 10:00:00 - - - - - - -
26.04.2017 09:00:00 4,2 1,7 22 12 S 1002,3 10
26.04.2017 08:00:00 - - - - - - -
26.04.2017 07:00:00 - - - - - - -
26.04.2017 06:00:00 1,0 0,2 14 8 S 1002,0 10
26.04.2017 05:00:00 - - - - - - -
26.04.2017 04:00:00 - - - - - - -
26.04.2017 03:00:00 1,3 0,5 14 8 S 1002,0 10
26.04.2017 02:00:00 - - - - - - -
26.04.2017 01:00:00 - - - - - - -
26.04.2017 00:00:00 2,6 2,0 7 4 WSW 1001,3 10
25.04.2017 23:00:00 - - - - - - -
25.04.2017 22:00:00 - - - - - - -
25.04.2017 21:00:00 3,1 2,6 7 4 WNW 1000,3 4,0
25.04.2017 20:00:00 - - - - - - -
25.04.2017 19:00:00 - - - - - - -
25.04.2017 18:00:00 3,7 3,2 11 6 NNW 1000,1 4,0
25.04.2017 17:00:00 - - - - - - -
25.04.2017 16:00:00 - - - - - - -
25.04.2017 15:00:00 6,9 5,6 14 8 SSE 1000,6 4,0
25.04.2017 14:00:00 - - - - - - -
25.04.2017 13:00:00 - - - - - - -
25.04.2017 12:00:00 6,5 4,3 18 10 SSE 1002,4 4,0
25.04.2017 11:00:00 - - - - - - -
25.04.2017 10:00:00 - - - - - - -
25.04.2017 09:00:00 6,0 3,8 18 10 S 1003,3 10
25.04.2017 08:00:00 - - - - - - -
25.04.2017 07:00:00 - - - - - - -
25.04.2017 06:00:00 5,0 2,8 18 10 S 1003,5 10
25.04.2017 05:00:00 - - - - - - -
25.04.2017 04:00:00 - - - - - - -
25.04.2017 03:00:00 5,5 0,8 25 14 SSE 1004,4 10
25.04.2017 02:00:00 - - - - - - -
25.04.2017 01:00:00 - - - - - - -
25.04.2017 00:00:00 5,5 -1,7 14 8 SSE 1007,2 10
24.04.2017 23:00:00 - - - - - - -
24.04.2017 22:00:00 - - - - - - -
24.04.2017 21:00:00 7,5 -2,6 11 6 SE 1008,5 10
24.04.2017 20:00:00 - - - - - - -
24.04.2017 19:00:00 - - - - - - -
24.04.2017 18:00:00 9,2 -3,8 7 4 WNW 1009,0 20
24.04.2017 17:00:00 - - - - - - -
24.04.2017 16:00:00 - - - - - - -
24.04.2017 15:00:00 9,3 -6,6 11 6 S 1009,5 20
24.04.2017 14:00:00 - - - - - - -
24.04.2017 13:00:00 - - - - - - -
24.04.2017 12:00:00 7,4 -2,4 11 6 S 1010,2 20
24.04.2017 11:00:00 - - - - - - -
24.04.2017 10:00:00 - - - - - - -
24.04.2017 09:00:00 3,3 -0,2 4 2 S 1010,4 10
24.04.2017 08:00:00 - - - - - - -
24.04.2017 07:00:00 - - - - - - -
24.04.2017 06:00:00 0,8 -2,7 4 2 SW 1010,1 10
24.04.2017 05:00:00 - - - - - - -
24.04.2017 04:00:00 - - - - - - -
24.04.2017 03:00:00 1,1 -2,5 4 2 S 1010,2 10
24.04.2017 02:00:00 - - - - - - -
24.04.2017 01:00:00 - - - - - - -
24.04.2017 00:00:00 2,3 -2,1 4 2 SSW 1010,4 10
23.04.2017 23:00:00 - - - - - - -
23.04.2017 22:00:00 - - - - - - -
23.04.2017 21:00:00 4,3 -3,5 14 8 NW 1009,8 10
23.04.2017 20:00:00 - - - - - - -
23.04.2017 19:00:00 - - - - - - -
23.04.2017 18:00:00 6,3 -2,4 22 12 NW 1008,4 20
23.04.2017 17:00:00 - - - - - - -
23.04.2017 16:00:00 - - - - - - -
23.04.2017 15:00:00 8,5 -1,1 14 8 NW 1007,5 20
23.04.2017 14:00:00 - - - - - - -
23.04.2017 13:00:00 - - - - - - -
23.04.2017 12:00:00 8,4 -4,5 18 10 WNW 1006,6 20
23.04.2017 11:00:00 - - - - - - -
23.04.2017 10:00:00 - - - - - - -
23.04.2017 09:00:00 5,6 -0,5 18 10 WNW 1004,8 20
23.04.2017 08:00:00 - - - - - - -
23.04.2017 07:00:00 - - - - - - -
23.04.2017 06:00:00 3,0 0,0 18 10 WNW 1002,9 10
23.04.2017 05:00:00 - - - - - - -
23.04.2017 04:00:00 - - - - - - -
23.04.2017 03:00:00 3,9 0,9 25 14 W 1001,1 10
23.04.2017 02:00:00 - - - - - - -
23.04.2017 01:00:00 - - - - - - -
23.04.2017 00:00:00 3,5 0,8 22 12 W 1000,8 10
22.04.2017 23:00:00 - - - - - - -
22.04.2017 22:00:00 - - - - - - -
22.04.2017 21:00:00 3,2 1,0 29 16 W 1000,5 10
22.04.2017 20:00:00 - - - - - - -
22.04.2017 19:00:00 - - - - - - -
22.04.2017 18:00:00 4,7 0,9 29 16 W 999,8 10
22.04.2017 17:00:00 - - - - - - -
22.04.2017 16:00:00 - - - - - - -
22.04.2017 15:00:00 6,2 1,7 18 10 W 998,2 10
22.04.2017 14:00:00 - - - - - - -
22.04.2017 13:00:00 - - - - - - -
22.04.2017 12:00:00 5,9 0,0 14 8 W 996,6 10
22.04.2017 11:00:00 - - - - - - -
22.04.2017 10:00:00 - - - - - - -
22.04.2017 09:00:00 4,8 2,4 25 14 W 994,2 10
22.04.2017 08:00:00 - - - - - - -
22.04.2017 07:00:00 - - - - - - -
22.04.2017 06:00:00 2,1 1,2 18 10 WNW 992,4 10
22.04.2017 05:00:00 - - - - - - -
22.04.2017 04:00:00 - - - - - - -
22.04.2017 03:00:00 5,0 2,9 11 6 SSW 993,6 10
22.04.2017 02:00:00 - - - - - - -
22.04.2017 01:00:00 - - - - - - -
22.04.2017 00:00:00 5,9 3,5 14 8 SSW 997,3 10
21.04.2017 23:00:00 - - - - - - -
21.04.2017 22:00:00 - - - - - - -
21.04.2017 21:00:00 9,1 2,1 7 4 SW 1001,0 10
21.04.2017 20:00:00 - - - - - - -
21.04.2017 19:00:00 - - - - - - -
21.04.2017 18:00:00 11,1 1,0 18 10 WSW 1002,9 20
21.04.2017 17:00:00 - - - - - - -
21.04.2017 16:00:00 - - - - - - -
21.04.2017 15:00:00 10,4 3,6 14 8 WSW 1005,0 20
21.04.2017 14:00:00 - - - - - - -
21.04.2017 13:00:00 - - - - - - -
21.04.2017 12:00:00 6,7 5,3 14 8 SW 1007,1 4,0
21.04.2017 11:00:00 - - - - - - -
21.04.2017 10:00:00 - - - - - - -
21.04.2017 09:00:00 5,0 3,9 14 8 SW 1009,1 4,0
21.04.2017 08:00:00 - - - - - - -
21.04.2017 07:00:00 - - - - - - -
21.04.2017 06:00:00 3,5 1,8 14 8 S 1012,4 4,0
21.04.2017 05:00:00 - - - - - - -
21.04.2017 04:00:00 - - - - - - -
21.04.2017 03:00:00 1,9 -0,1 18 10 S 1017,4 4,0
21.04.2017 02:00:00 - - - - - - -

tt = temperature
td = dewpoint
ff = wind speed
dd = wind direction
ppp = reduced air pressure
vv = visibility

Next stations